Wind_Speed
27 32 35 35 35 37 40 43 43 41 40 39 36 32 33 38 39 38 40 41 37 32 28 26 23 21 21 20 19 20 21 22 23 22 23 25 25 26 26 25 25 25 23 22 20 18 19 23 24 21 20 20 20 20 19 18 19 19 18 19 18 17 17 18 20 21 20 19 18 17 16 16 15 15 17 17 18 20 22 22 23 24 24 23 22
23 29 33 35 35 35 36 38 39 39 39 39 38 35 33 33 35 39 43 44 42 37 32 28 24 21 21 22 21 21 21 21 22 22 23 24 24 24 25 24 24 24 24 22 20 19 18 20 22 21 20 21 21 21 20 20 21 20 19 18 18 18 18 19 20 22 23 21 19 18 17 17 17 16 17 19 18 19 20 21 22 23 24 23 22
20 26 30 34 34 34 34 34 35 36 37 37 35 34 34 31 30 35 42 46 48 48 41 31 24 22 21 21 21 22 22 22 22 22 23 24 23 23 23 23 24 25 24 23 20 20 20 19 19 19 19 19 20 21 22 21 20 20 21 20 20 19 19 19 20 21 22 22 20 19 17 17 17 16 16 18 18 18 19 19 19 20 22 24 22
18 22 28 33 34 34 33 33 34 34 35 35 33 33 35 33 31 34 40 44 47 50 46 33 22 21 22 23 24 24 22 23 23 22 23 23 23 23 23 23 23 23 24 23 20 19 21 21 19 17 17 18 19 20 23 23 21 20 20 21 21 20 18 18 19 18 19 20 20 20 19 18 18 17 16 16 16 18 20 19 19 19 20 23 24
17 20 25 29 32 34 34 33 35 36 34 34 34 34 33 34 34 33 35 39 42 44 44 34 24 21 22 24 28 26 22 22 23 22 22 22 22 23 23 23 23 22 22 22 21 20 21 21 20 17 17 19 20 19 20 23 23 22 20 20 20 19 18 18 18 18 18 18 18 19 20 20 20 18 17 17 17 19 21 20 20 21 21 23 25
16 18 21 25 29 32 34 34 35 37 37 35 34 32 31 33 36 33 29 33 39 39 37 33 26 22 21 23 28 28 23 22 22 21 21 21 21 22 23 25 25 23 22 22 22 21 20 20 20 20 19 19 20 19 18 19 21 23 23 22 21 20 20 19 18 18 18 19 19 18 18 19 20 20 18 19 20 21 21 20 20 23 25 26 27
16 16 17 22 28 31 32 35 35 34 36 37 36 34 33 33 37 37 30 31 37 37 34 30 26 22 21 24 29 28 24 22 21 20 19 20 20 20 22 24 25 23 21 22 23 21 20 20 20 20 20 20 21 19 18 18 19 20 20 20 20 21 21 19 17 18 19 20 20 19 17 17 19 19 17 18 20 21 21 21 21 22 25 27 25
16 16 16 18 26 28 29 32 34 31 31 35 37 37 36 35 36 36 32 30 34 36 35 31 28 26 24 26 30 30 26 24 22 20 19 19 20 21 21 23 25 23 21 21 22 21 20 21 21 21 21 22 23 21 20 20 20 20 20 19 19 19 20 19 18 18 19 20 20 20 19 19 18 18 18 19 22 22 22 22 23 22 23 24 24
16 16 15 14 21 28 30 31 33 33 30 29 31 33 33 33 32 33 32 30 32 37 38 33 29 30 29 30 33 35 32 28 25 24 21 21 23 25 23 22 23 24 22 21 21 21 21 22 23 24 24 23 23 22 21 21 21 21 21 21 22 20 19 19 20 19 18 20 20 20 21 22 21 20 20 21 21 19 18 19 21 22 21 21 22
15 16 16 14 15 23 29 30 32 35 32 28 29 31 31 31 32 33 34 32 32 36 38 34 31 31 31 33 36 38 39 36 32 30 26 24 26 28 27 24 23 24 24 22 22 22 22 22 23 25 26 24 23 23 22 22 23 23 22 22 23 24 21 19 19 19 20 20 20 21 24 25 23 22 23 23 20 19 18 17 18 19 19 19 19
15 16 16 15 15 16 21 25 29 34 35 31 28 29 30 31 33 34 34 33 34 37 38 39 40 39 37 38 40 41 43 41 37 34 31 29 27 27 28 28 24 23 23 23 22 22 21 22 22 25 27 26 24 25 24 23 24 25 25 26 27 29 27 23 20 19 20 20 20 21 24 26 25 24 23 22 21 21 20 18 17 17 18 19 19
14 16 16 14 15 14 15 20 24 29 32 32 30 30 30 31 32 34 34 33 33 36 39 42 44 45 43 44 45 45 46 45 43 41 37 34 31 28 29 29 27 26 25 23 23 22 22 22 21 23 29 29 26 25 25 25 26 27 28 28 29 32 33 31 27 22 20 21 22 23 24 23 24 24 22 21 20 21 21 20 18 18 18 20 19
14 15 15 14 13 13 13 17 21 23 25 28 30 30 30 31 33 33 34 33 30 32 35 37 38 42 44 44 44 45 46 46 47 46 42 37 34 30 30 31 31 31 29 27 26 25 25 24 23 25 32 33 29 26 26 26 27 28 29 30 30 32 34 35 35 31 28 24 24 28 29 24 23 23 22 20 20 20 21 22 20 19 19 21 21
14 14 15 15 13 12 12 14 18 20 20 21 24 26 27 29 31 30 31 32 32 32 33 32 33 38 43 44 43 43 43 44 45 45 43 39 33 30 31 31 29 27 28 28 28 28 28 29 29 31 33 34 32 28 27 29 31 30 30 31 32 33 34 35 36 36 35 31 29 31 31 27 26 26 23 22 21 19 21 22 21 21 21 21 21
14 14 13 13 12 12 11 10 13 18 20 20 22 24 25 27 28 27 27 29 30 32 32 32 32 35 38 38 37 39 41 41 40 41 41 35 30 28 30 31 27 22 23 25 24 24 26 29 34 36 35 34 34 31 30 32 34 34 32 32 33 34 34 35 36 36 36 36 36 36 33 30 30 30 26 25 24 24 25 25 23 23 21 19 19
14 14 13 12 12 11 10 9 8 13 17 19 21 23 25 25 25 25 25 26 27 29 31 32 32 32 33 32 32 34 37 37 36 36 34 30 28 29 31 32 28 23 23 25 25 24 26 27 30 34 37 37 37 37 37 36 36 35 34 33 34 35 35 36 37 37 36 36 37 36 34 32 32 32 29 27 28 29 30 27 23 21 21 19 19
15 17 16 15 15 14 13 11 9 10 13 17 19 22 24 25 24 23 23 24 25 26 27 28 29 29 30 31 32 32 33 34 34 33 31 30 31 32 33 32 30 26 24 24 23 24 27 29 28 28 31 35 38 41 40 38 37 36 35 34 35 36 37 36 38 38 37 36 35 34 33 30 29 30 30 30 31 33 33 30 23 19 20 22 23
17 18 18 18 17 17 16 15 13 11 11 13 15 18 21 24 24 24 24 24 25 25 24 25 26 27 27 29 31 32 32 32 32 31 32 32 33 34 34 31 28 26 25 24 23 24 27 30 31 29 29 32 37 39 39 38 38 36 34 35 35 36 37 36 36 37 36 34 33 33 32 31 29 31 31 30 31 32 35 36 29 21 19 20 22
19 19 19 20 20 20 19 18 17 16 14 13 13 14 16 19 20 22 23 24 25 25 25 25 26 26 26 27 28 30 31 30 29 31 32 32 33 34 32 26 23 24 25 26 27 27 26 29 32 33 34 35 36 37 38 38 37 35 34 34 33 35 37 34 30 31 32 32 32 31 31 32 33 34 33 31 30 31 34 38 37 32 28 22 18
19 20 20 20 21 21 22 22 21 20 19 17 16 15 15 15 17 18 21 22 23 24 24 25 26 26 27 27 26 28 30 29 28 30 33 33 34 34 31 26 24 27 29 30 31 30 28 29 30 32 35 37 36 36 37 37 36 35 35 33 32 34 34 28 24 26 27 29 31 29 29 32 35 35 32 29 30 31 32 35 39 40 38 29 19
20 20 20 20 21 21 22 23 24 24 23 22 21 19 17 16 16 16 18 19 20 22 22 22 24 25 25 25 25 28 32 31 28 29 33 35 34 33 33 32 30 31 32 32 31 29 29 30 31 31 33 36 36 36 36 37 37 38 37 36 36 36 32 25 22 24 25 28 29 26 26 31 34 35 34 32 31 30 30 33 37 40 42 37 29
21 21 21 21 22 22 23 24 25 26 26 25 25 24 22 20 18 17 17 17 18 20 21 21 22 23 24 25 27 29 32 31 29 30 34 36 35 34 35 35 34 34 33 33 32 30 29 31 32 31 31 32 32 32 33 35 39 40 39 37 38 39 35 30 27 26 26 27 24 21 22 24 26 30 33 34 35 33 30 32 35 37 40 40 38
26 26 26 26 26 26 25 25 26 27 27 27 27 27 26 24 21 19 18 18 17 18 20 22 22 24 27 30 31 30 29 29 31 32 34 35 35 34 35 35 35 34 33 34 34 30 28 29 30 29 29 31 31 30 30 31 33 35 35 35 36 39 39 37 36 34 33 30 27 25 26 24 23 26 29 30 35 37 34 31 31 33 35 38 40
30 30 30 30 31 31 30 28 27 27 28 28 28 29 29 28 25 22 20 19 18 17 17 18 20 23 26 28 29 27 26 28 30 32 33 35 35 34 34 34 34 33 34 35 34 30 26 24 26 28 31 33 32 30 30 30 29 30 31 31 32 35 37 38 38 38 39 39 37 37 36 30 27 28 28 28 34 38 35 31 30 31 33 36 39
30 32 34 34 34 34 35 34 31 29 29 29 28 28 28 27 26 24 22 20 19 18 17 17 18 20 22 24 25 25 25 24 23 25 30 34 34 33 33 34 34 34 35 36 35 31 28 28 29 32 34 34 32 31 30 30 30 30 30 31 32 33 36 37 37 37 40 42 43 44 44 41 37 32 27 28 35 37 35 34 34 33 34 37 38
30 32 34 36 36 36 36 36 34 30 27 27 29 28 25 23 23 24 22 21 21 21 20 18 17 18 20 21 21 22 22 20 19 20 23 28 30 31 32 33 33 33 34 35 35 34 34 34 35 36 36 36 35 34 34 34 34 33 32 33 34 34 35 37 37 37 39 41 42 45 47 48 46 38 28 29 37 39 36 36 36 34 35 38 38
30 31 33 35 36 34 33 34 33 30 26 23 25 25 23 21 20 20 21 21 21 22 22 21 20 19 18 18 16 15 15 15 15 15 17 20 24 27 28 28 29 30 31 31 32 32 32 33 33 34 35 35 36 37 38 38 37 36 35 36 36 35 36 37 36 36 38 39 41 44 45 47 47 43 35 35 40 40 36 36 36 33 33 36 37
27 28 29 31 31 30 30 29 29 29 25 21 21 20 20 20 19 18 20 21 21 21 21 20 19 18 16 16 15 13 12 12 12 14 14 15 18 22 24 25 25 25 26 25 25 26 27 28 28 29 30 31 33 35 37 37 37 37 37 37 37 36 36 36 36 37 38 39 40 42 44 44 42 40 39 40 42 41 38 37 36 33 31 33 35
26 27 28 29 30 29 28 27 26 26 22 18 20 22 22 21 18 16 19 23 24 24 22 18 16 17 16 16 16 14 12 12 15 18 19 18 19 22 25 26 25 23 22 21 20 22 24 25 26 27 27 27 28 30 31 32 33 33 34 34 34 35 36 37 38 39 40 42 42 43 44 44 42 40 40 42 44 44 43 40 38 36 34 35 35
29 30 30 31 31 29 27 26 24 23 20 18 22 26 25 24 20 17 19 22 24 25 25 23 21 20 18 19 20 19 17 17 19 21 22 22 23 24 26 27 27 25 22 21 21 22 24 25 26 27 27 27 27 28 29 29 29 30 31 31 31 32 34 35 37 39 40 42 44 43 43 45 46 45 45 46 46 47 47 44 42 40 39 39 40
30 31 31 32 32 29 24 19 13 14 19 19 22 24 23 22 20 19 19 21 22 23 24 25 26 26 24 24 25 25 25 25 26 26 26 27 28 27 27 27 28 26 23 22 23 25 26 26 27 26 25 23 23 25 26 26 26 28 30 30 30 31 32 32 33 35 36 38 39 39 39 42 45 46 47 47 45 45 46 45 44 43 42 42 42
30 32 33 33 34 31 25 16 5 7 16 18 19 18 16 16 16 15 16 19 21 22 23 23 24 25 26 27 28 29 29 30 30 30 30 30 30 30 29 28 28 27 25 23 25 28 28 27 27 27 25 23 22 23 24 23 22 22 23 23 25 28 31 31 30 30 30 31 33 33 34 36 39 41 42 42 42 43 44 45 45 45 44 43 42
30 32 34 33 33 33 30 26 21 17 18 20 20 16 13 13 13 12 10 11 13 15 17 17 17 18 19 20 22 24 26 28 29 29 29 29 29 30 30 29 29 29 27 25 27 28 27 27 27 27 26 24 23 22 21 20 19 18 18 19 20 23 27 29 29 29 29 29 30 30 31 33 34 34 36 37 39 42 44 45 46 45 44 43 43
29 31 33 34 33 34 31 28 27 26 25 23 21 19 17 15 14 13 12 9 7 8 8 9 10 11 12 13 15 17 20 22 24 25 26 27 28 28 28 28 28 27 25 25 26 27 28 28 27 27 27 27 25 24 23 22 21 20 20 20 20 20 21 23 25 28 29 29 29 30 31 32 32 33 33 34 36 39 42 44 46 45 44 44 43
28 30 33 36 37 37 36 32 28 25 24 23 21 19 19 18 16 16 14 12 10 8 7 6 5 5 7 8 9 11 14 17 20 22 23 23 23 24 23 22 21 20 20 21 22 24 25 26 26 27 28 29 30 29 29 28 27 26 26 25 25 25 23 22 24 26 27 28 29 30 30 30 31 31 31 32 34 37 39 42 43 44 44 44 43
28 30 34 36 38 40 40 39 36 32 29 27 24 21 19 19 19 18 17 15 14 13 11 9 8 5 3 2 2 5 8 10 13 15 16 16 17 18 17 15 14 13 14 15 17 18 19 20 21 23 24 26 27 28 29 29 30 30 30 30 30 30 30 29 29 30 31 31 32 32 31 30 29 29 30 32 34 35 37 39 40 41 42 43 42
27 29 32 34 36 38 39 40 41 39 37 35 33 31 27 24 22 22 22 21 19 17 16 14 12 9 8 6 5 5 3 3 4 5 6 7 9 11 10 10 10 9 9 10 11 11 11 12 13 14 14 16 17 19 21 22 24 25 26 27 29 30 31 31 31 31 32 33 32 31 30 29 28 28 29 31 32 32 35 37 37 38 40 41 41
26 27 29 31 34 35 37 38 39 39 39 39 38 38 38 36 33 31 31 30 28 27 25 23 20 19 17 15 13 11 8 4 3 4 4 4 3 3 3 4 5 5 5 5 5 5 4 4 3 4 5 6 7 9 11 12 13 15 17 18 19 21 23 24 26 27 28 29 28 28 27 27 26 25 26 27 28 29 31 34 35 36 38 39 40
25 26 27 29 31 33 35 36 37 38 38 38 38 38 38 39 38 36 35 36 36 35 34 33 32 30 27 23 20 17 14 14 16 18 18 17 16 16 14 12 11 11 10 9 8 6 5 5 4 3 2 2 3 4 5 6 7 8 10 11 12 14 15 16 18 20 22 23 23 23 23 23 23 23 23 24 25 26 28 30 32 34 36 37 38
26 27 27 27 28 31 33 33 34 36 36 36 37 37 37 36 36 35 35 36 37 36 35 34 34 32 29 28 26 24 23 26 28 27 26 25 25 24 23 21 19 17 16 14 14 12 11 10 9 8 8 7 6 6 6 6 6 6 7 7 8 9 10 11 12 13 15 17 17 18 18 18 19 19 20 20 21 22 24 27 29 29 31 33 35
23 25 26 26 26 28 30 30 31 32 32 32 33 34 34 34 34 34 35 36 36 35 33 33 32 30 28 27 26 24 26 29 29 28 28 28 28 27 27 26 24 22 20 19 18 17 16 15 13 12 12 12 12 11 11 10 10 9 8 7 7 7 7 8 8 8 9 11 12 13 13 13 14 15 16 16 16 16 18 20 23 24 25 26 29
19 20 22 25 26 26 27 29 29 29 29 30 30 30 30 30 31 32 33 33 33 32 31 30 29 28 27 27 26 26 28 29 29 28 28 27 26 26 25 25 24 23 22 21 20 19 18 17 16 14 14 14 14 14 13 13 14 14 13 12 10 9 8 8 8 8 8 8 9 9 10 10 10 11 11 12 12 12 12 13 15 17 18 19 21
18 17 17 20 24 26 27 28 28 28 28 28 28 28 28 28 28 29 30 30 30 30 29 28 27 27 26 26 26 27 29 29 28 28 28 27 26 26 24 23 23 23 22 21 20 19 18 18 17 16 15 14 14 14 13 13 13 13 13 13 13 12 12 11 10 10 9 9 9 8 8 8 7 8 8 8 8 9 9 9 9 10 11 12 14
18 17 16 15 17 19 23 24 25 26 27 26 26 26 26 26 26 27 27 28 28 28 27 27 26 25 25 25 26 27 28 28 28 28 27 26 26 25 24 23 23 22 22 22 21 20 20 19 19 18 17 16 15 15 14 14 13 13 12 12 11 11 11 11 11 10 11 11 11 10 10 9 8 7 6 6 6 6 6 6 6 6 6 7 8
15 16 17 15 14 13 14 15 16 17 19 21 22 23 24 25 26 26 26 26 26 26 25 25 24 24 24 24 24 25 25 25 25 25 25 24 23 22 22 21 21 21 21 21 21 21 22 21 21 20 19 18 17 16 15 14 14 14 14 14 13 13 13 12 11 10 9 10 10 10 10 10 10 9 8 7 6 5 4 4 5 5 5 5 6
13 14 15 16 16 15 13 13 13 13 13 14 15 16 19 20 21 22 23 24 23 23 22 22 21 21 21 21 21 21 22 22 22 21 21 20 20 20 19 19 18 18 18 18 19 20 20 20 21 21 21 20 19 19 18 17 16 15 15 15 15 15 15 14 13 12 10 9 8 7 8 8 9 9 9 8 8 6 5 4 3 3 4 4 4
13 13 13 14 15 16 16 16 16 15 15 14 13 14 15 16 16 17 18 18 18 19 19 19 20 20 19 19 19 19 19 19 19 18 18 18 18 18 17 17 17 16 16 15 16 16 16 17 18 18 18 18 18 18 18 18 17 16 16 15 14 14 14 13 13 13 12 11 9 7 7 6 6 7 8 8 7 7 6 5 4 3 3 3 3
13 12 12 13 13 14 14 15 15 15 16 17 16 16 16 16 15 15 14 13 13 13 14 15 17 18 17 16 16 16 16 16 16 16 16 16 16 16 16 15 15 15 15 14 14 14 15 15 15 15 15 16 16 16 16 16 16 16 16 16 16 15 14 13 12 12 12 12 11 11 9 7 6 7 7 7 6 6 6 6 6 5 5 5 5
13 12 12 13 13 13 14 14 14 14 15 15 16 16 16 16 15 15 14 13 13 13 13 13 14 15 15 14 15 14 14 14 15 14 15 15 15 15 15 15 14 14 14 14 14 14 14 15 15 15 15 15 16 16 15 14 14 14 15 16 16 15 14 14 13 13 13 12 11 11 12 11 11 10 8 6 4 4 5 6 6 6 7 7 7
12 12 12 13 13 14 14 13 14 14 14 14 15 15 15 15 15 15 15 15 15 15 15 14 14 14 14 14 14 14 15 15 16 16 16 15 15 15 15 15 15 15 15 15 15 15 15 15 15 15 15 15 15 16 15 15 14 14 13 13 13 13 13 13 13 13 13 13 12 11 10 10 11 12 11 9 6 6 7 8 7 6 5 6 7
11 12 12 13 13 14 14 14 14 14 14 14 14 14 14 14 14 14 15 15 15 15 15 15 14 14 14 13 13 14 14 15 15 16 16 16 16 16 16 16 16 16 16 16 17 17 17 16 16 16 15 14 14 15 15 15 15 14 13 12 11 10 10 11 12 13 13 13 12 12 11 10 9 10 11 11 10 10 9 10 9 8 7 6 5
Wind_Direction
238 234 231 233 238 237 232 230 229 231 235 235 230 227 227 228 225 224 231 238 239 239 239 236 233 231 233 230 222 221 222 225 226 223 223 226 227 229 230 229 230 231 231 232 231 228 230 233 233 231 231 234 236 238 241 243 244 245 245 245 244 245 247 248 252 256 256 255 259 260 257 254 251 249 248 247 252 262 268 266 264 265 265 266 267
235 236 234 232 236 239 237 232 229 230 234 235 234 231 230 231 229 226 229 234 238 238 236 233 231 235 241 235 222 218 219 222 224 221 222 225 227 228 229 226 228 230 230 229 229 229 229 230 231 231 231 233 235 237 238 240 244 245 244 244 244 243 245 248 252 257 258 258 259 259 257 257 255 252 252 252 251 254 262 266 268 269 269 268 268
236 232 235 234 234 237 238 234 230 230 231 232 232 232 231 228 229 230 228 228 230 232 234 238 237 238 244 241 229 224 223 222 220 218 220 224 226 226 225 225 226 229 230 228 227 229 231 232 231 229 230 232 234 238 240 238 239 242 244 244 244 243 243 245 249 254 259 261 260 260 261 259 257 255 255 256 254 253 254 258 262 266 269 271 271
248 227 230 234 233 234 234 231 230 229 229 228 226 229 231 227 226 232 231 227 226 229 234 239 237 236 244 246 239 231 226 226 224 219 218 222 226 228 227 227 227 228 230 229 226 227 231 234 233 229 229 233 236 241 247 248 243 240 242 243 245 247 246 245 248 251 257 260 260 260 262 261 259 259 258 259 257 255 255 254 255 256 259 269 273
263 233 227 231 232 233 232 230 230 228 226 225 225 228 231 226 224 231 232 229 227 229 233 233 227 233 246 250 246 238 229 228 226 219 217 220 224 228 229 230 230 228 229 230 226 224 228 232 232 228 227 232 235 237 244 251 253 250 247 244 244 247 249 249 250 251 253 257 259 261 261 258 257 255 254 258 258 257 257 257 259 259 255 260 270
276 244 231 231 230 231 232 230 230 230 227 224 223 225 225 220 222 226 225 228 231 230 232 230 222 229 246 251 247 240 228 224 224 219 219 221 224 229 231 232 232 230 229 231 228 223 223 225 228 228 227 229 232 232 233 240 247 251 252 251 248 245 246 248 250 252 253 255 258 260 259 257 257 255 252 253 256 257 256 256 261 266 268 270 273
292 263 247 238 229 226 228 230 231 232 230 227 223 221 221 224 229 231 228 230 234 231 229 229 225 233 252 255 248 239 224 217 220 220 220 222 223 226 228 228 230 230 228 229 228 225 222 221 223 226 225 228 232 230 229 233 240 244 245 247 247 244 245 245 246 249 253 256 256 256 256 256 256 256 254 252 253 253 253 254 255 261 273 282 282
306 289 273 246 227 223 226 230 233 233 231 231 228 224 226 231 234 234 230 227 229 226 221 222 225 232 246 255 252 243 227 215 217 220 219 221 227 229 226 224 226 228 227 227 226 223 222 224 227 226 227 235 241 239 239 243 247 247 244 242 241 240 243 245 243 244 247 251 255 255 256 256 253 253 253 250 247 246 249 255 257 258 265 276 281
311 306 297 260 228 224 225 227 232 234 230 229 228 226 227 229 229 229 227 224 223 221 216 214 219 224 233 244 249 246 238 228 232 239 233 230 238 241 233 223 223 227 227 226 226 223 222 225 230 232 234 241 248 249 250 253 254 252 250 249 246 241 240 242 242 241 242 245 250 252 254 254 251 250 249 247 245 247 251 254 258 263 266 267 272
309 311 311 294 257 236 226 223 229 232 230 224 222 223 224 223 223 225 227 226 223 222 217 213 217 223 228 233 237 242 243 240 245 253 251 246 248 246 239 228 221 224 225 224 223 223 222 224 229 235 239 243 247 249 250 252 254 254 252 251 251 247 242 239 239 239 240 241 244 246 249 251 251 249 248 247 247 250 251 250 252 260 266 266 265
310 311 314 310 296 265 232 224 230 233 232 226 220 221 220 218 219 222 225 225 222 220 218 216 221 227 228 225 225 233 240 241 245 252 255 256 252 245 241 235 225 221 222 223 224 223 222 224 227 234 239 241 244 247 249 249 250 252 251 249 250 250 246 239 237 239 241 242 241 240 244 248 250 250 250 249 248 249 248 248 249 250 255 262 265
313 313 315 314 309 289 246 229 232 233 234 231 225 222 221 218 218 220 221 222 220 219 219 219 221 224 223 221 224 230 235 239 244 247 250 255 252 241 237 235 231 227 223 222 224 224 224 225 225 233 242 245 246 248 249 248 247 247 248 248 248 250 250 246 242 239 240 244 245 244 244 246 247 248 248 249 248 249 249 245 245 247 249 254 257
312 313 314 313 315 306 274 251 242 237 238 237 234 232 229 222 218 218 218 217 214 216 219 218 219 221 221 223 229 232 233 236 240 241 243 249 248 238 231 230 232 233 231 229 228 226 226 226 225 234 245 251 254 254 252 251 249 245 244 246 246 246 247 248 246 242 240 242 248 251 250 247 245 244 243 245 246 248 249 246 246 247 248 252 254
313 317 315 312 317 318 302 274 253 245 246 247 244 243 239 229 222 219 218 216 213 214 217 217 218 220 223 227 232 233 232 234 236 236 239 244 241 231 226 227 228 231 233 235 234 232 234 239 242 245 248 251 254 255 256 258 256 250 244 243 244 244 243 244 244 241 239 239 243 250 252 249 248 247 243 242 244 246 246 245 248 251 250 257 263
318 316 306 302 311 321 321 302 263 250 250 247 242 243 242 236 228 221 217 217 216 216 218 219 218 219 222 225 230 232 232 234 235 233 233 233 227 223 222 223 223 224 226 228 230 231 235 242 249 252 253 255 256 258 259 261 259 255 249 243 243 244 244 243 242 240 240 241 243 248 252 253 254 254 246 239 240 243 245 246 248 251 252 257 262
312 303 290 284 291 297 306 315 293 268 261 252 242 239 242 241 234 226 221 218 218 218 219 220 220 219 221 223 227 231 233 234 237 236 229 220 217 221 222 222 223 224 224 225 227 231 232 235 242 249 252 254 257 259 260 257 254 253 251 248 245 245 245 245 246 244 245 248 249 250 253 257 261 261 254 245 241 241 245 249 248 246 247 250 253
307 297 289 286 285 281 280 287 290 285 278 267 254 246 246 245 240 233 227 222 219 218 217 219 220 220 222 225 228 231 231 230 234 235 228 221 220 223 223 222 223 225 227 229 229 231 234 234 234 239 244 247 250 254 254 251 248 247 247 248 248 248 249 250 250 250 249 249 250 251 253 257 262 264 260 254 248 241 240 244 244 239 243 248 251
313 302 293 286 284 283 280 276 274 276 280 277 266 256 252 251 248 242 237 231 227 222 218 219 220 222 224 226 227 229 229 230 233 233 227 223 224 225 224 223 223 225 228 231 231 231 235 238 237 235 237 242 247 248 246 244 244 242 243 246 246 249 255 256 254 256 256 253 250 249 251 253 256 258 258 255 251 244 238 238 237 238 243 247 250
325 317 304 290 283 283 282 279 273 269 271 273 268 262 257 255 253 248 244 240 235 229 224 223 223 224 226 225 226 228 229 229 231 229 225 223 224 226 226 224 223 227 230 233 235 235 234 240 244 243 241 242 244 243 239 239 241 240 241 242 241 247 255 255 252 256 261 262 260 254 251 254 256 257 257 256 254 250 242 237 236 240 245 246 245
340 332 322 307 294 285 281 280 276 269 267 266 263 259 255 252 251 249 246 243 239 232 227 225 225 225 225 225 226 229 230 229 229 227 226 226 226 226 224 221 222 228 233 235 236 235 234 237 243 247 246 244 242 241 240 242 244 245 242 237 237 247 254 252 250 255 260 267 271 266 257 255 256 255 254 253 252 251 248 241 237 239 244 244 240
346 339 332 322 309 296 285 281 278 271 265 263 260 258 255 252 250 247 243 240 237 232 228 227 226 225 224 225 228 230 231 229 226 228 230 230 228 226 222 221 225 229 234 236 236 236 237 237 239 245 249 248 246 245 245 246 247 249 246 241 240 247 250 247 251 258 262 266 272 270 263 258 256 254 252 249 249 250 250 247 241 238 240 240 238
344 339 332 324 315 305 293 285 280 274 268 263 260 258 256 255 253 249 245 241 237 233 230 228 227 225 222 222 226 230 231 229 226 228 230 230 228 226 223 223 226 230 234 239 240 239 239 240 242 248 254 256 255 254 253 251 250 251 252 249 247 249 249 248 250 255 260 264 266 263 259 256 255 255 252 249 250 252 252 250 246 242 241 242 242
339 336 331 324 316 308 299 289 281 275 270 265 260 256 254 253 253 251 247 244 240 235 232 229 229 228 225 224 226 227 228 229 227 226 229 233 232 228 225 225 226 229 234 241 244 244 243 246 249 253 257 261 263 264 262 259 256 256 258 256 253 252 254 255 256 255 255 257 258 258 259 256 252 253 251 249 252 256 256 254 251 248 247 246 245
336 332 328 323 317 310 303 294 284 276 270 266 262 257 252 250 250 250 246 241 238 234 231 230 229 229 229 229 229 227 226 229 226 221 226 235 236 228 224 225 226 230 235 241 244 245 245 246 249 252 255 258 262 266 268 267 264 263 262 261 259 257 256 257 258 257 256 256 256 257 258 255 251 252 252 251 254 258 258 256 253 250 249 248 247
339 333 328 322 316 310 304 296 288 279 270 264 260 257 252 249 247 247 243 239 237 234 232 231 229 228 229 229 228 227 226 226 224 221 225 233 234 229 226 226 227 231 237 241 243 244 243 242 243 247 250 253 258 263 265 265 266 266 264 264 263 261 259 258 258 258 257 257 257 257 257 255 254 256 257 255 258 260 258 255 253 249 247 248 248
342 335 328 320 314 309 303 297 291 283 272 263 257 253 250 247 246 245 242 239 240 241 238 233 230 230 231 231 230 228 227 227 229 233 236 238 236 233 232 233 232 234 238 241 242 244 244 244 245 247 250 254 258 260 261 263 266 268 267 266 264 261 259 258 257 256 256 255 256 258 258 258 260 263 259 253 259 262 260 257 257 254 250 250 248
340 334 327 318 313 310 304 296 289 280 270 258 251 248 244 240 239 240 240 238 240 244 244 241 239 237 236 235 233 231 233 237 241 244 246 248 248 245 243 242 242 242 244 245 247 249 250 251 251 252 253 256 259 261 263 265 266 265 264 263 263 262 260 259 259 259 258 257 255 256 259 262 265 265 258 251 259 267 266 263 263 261 257 256 253
341 336 330 324 322 318 309 298 286 276 265 250 241 237 233 231 232 235 234 232 233 237 242 245 246 245 246 249 251 250 248 246 244 244 244 247 253 256 254 249 247 247 249 252 255 258 261 261 261 259 257 256 257 259 261 263 262 261 259 258 258 259 260 261 262 261 260 260 258 257 259 263 264 261 255 253 262 271 272 269 268 266 263 261 258
352 349 344 340 338 331 316 299 279 264 254 239 227 221 213 209 212 220 223 223 224 227 232 237 239 241 244 247 248 248 244 234 235 244 248 245 246 254 259 258 257 256 257 260 262 264 264 265 265 264 263 261 259 259 261 263 264 264 262 259 258 258 258 259 259 258 257 259 261 261 262 263 260 256 254 257 264 271 273 271 271 269 265 261 258
359 358 356 355 354 348 330 307 276 245 227 218 215 212 205 198 199 206 214 219 224 228 232 236 238 237 236 237 238 239 237 234 238 245 251 253 251 254 258 262 265 266 267 270 269 266 265 266 266 268 269 269 267 267 267 269 271 272 272 270 267 264 263 262 262 261 259 259 261 264 267 268 264 260 260 264 271 274 274 272 271 268 263 258 257
4 3 5 7 10 11 2 336 291 225 201 198 199 199 198 196 199 209 220 227 231 234 236 240 242 241 238 238 242 244 243 243 245 247 250 255 258 259 261 264 267 270 273 275 273 270 269 269 269 270 270 269 268 268 268 270 272 274 276 276 274 271 270 268 268 267 265 262 261 264 268 270 269 268 269 273 278 279 277 273 269 265 261 259 257
12 12 16 19 20 28 40 42 43 174 176 174 173 177 185 189 192 202 221 232 237 240 242 243 245 246 244 243 245 248 249 250 252 253 255 258 260 263 265 268 270 273 274 274 273 272 272 272 272 273 271 269 268 269 270 270 270 271 273 274 274 275 275 273 271 269 267 265 263 264 267 271 273 273 274 275 277 278 275 272 269 266 263 261 259
22 22 25 29 29 34 50 69 82 100 123 132 131 133 143 156 162 167 186 213 229 235 240 243 246 248 249 248 249 250 252 255 256 258 260 262 264 266 269 271 272 273 273 270 269 270 270 270 271 272 270 267 265 265 266 266 263 262 263 265 269 275 278 278 274 270 267 267 268 270 272 273 274 275 275 274 273 273 272 271 270 268 263 260 259
35 36 36 39 41 41 46 61 79 90 100 110 117 123 129 138 145 145 145 156 182 201 215 229 237 242 246 248 249 251 253 256 259 262 265 268 270 271 273 273 274 273 270 266 263 262 262 261 260 260 258 256 253 250 249 250 249 249 250 252 255 261 267 271 272 270 270 270 271 272 272 273 274 275 275 274 273 272 270 269 268 266 263 260 259
44 49 50 50 52 52 51 52 61 75 87 96 107 118 128 136 142 141 138 140 146 151 157 172 192 218 231 236 244 252 258 263 266 269 271 273 274 274 273 272 271 267 260 254 251 250 251 251 250 250 250 249 249 249 249 248 248 247 247 248 248 249 250 254 261 265 268 270 270 271 271 271 272 273 273 272 272 271 269 268 267 266 265 263 260
48 54 58 59 58 60 60 59 59 62 69 77 85 96 111 124 128 126 124 126 128 125 122 121 120 127 153 182 240 267 270 273 274 274 273 272 272 273 271 265 258 251 243 238 236 239 241 243 243 245 246 247 248 250 251 252 252 251 252 252 253 254 255 259 264 267 269 270 271 271 272 271 269 268 268 269 270 270 269 269 269 268 266 263 259
50 55 61 65 65 65 65 66 66 66 67 70 73 76 82 88 94 98 99 102 104 103 100 101 104 104 100 85 61 44 28 345 308 290 278 266 262 262 255 242 232 225 220 218 222 226 231 235 239 242 247 250 252 253 256 258 258 259 260 261 263 264 264 265 265 266 267 268 268 268 267 266 264 263 265 266 268 269 270 270 269 267 265 261 256
52 58 63 66 69 71 70 71 72 72 71 71 72 73 74 75 76 77 79 82 84 84 82 81 78 74 71 69 67 70 75 71 48 56 72 84 93 102 121 144 158 158 156 158 166 178 188 201 223 241 254 262 266 267 269 272 273 274 274 273 273 273 272 270 267 264 263 264 264 263 263 262 261 261 262 264 265 266 268 268 267 266 263 259 253
53 61 67 70 72 73 73 73 74 75 75 74 73 73 73 74 74 74 73 74 75 74 72 71 69 66 64 64 66 72 78 76 70 69 72 75 77 79 81 82 83 85 85 85 86 87 88 90 87 73 48 7 337 321 314 312 310 307 304 300 295 290 287 283 278 272 267 265 264 264 264 263 261 259 259 261 263 265 266 267 265 262 260 257 253
55 59 65 71 74 74 74 74 74 75 76 77 77 77 76 76 76 77 75 73 72 70 69 68 68 67 64 62 61 63 67 68 68 66 66 67 68 70 71 71 71 72 73 74 74 72 70 69 71 73 73 67 56 45 34 21 10 358 348 341 332 325 318 309 300 291 283 277 273 271 269 267 264 261 258 260 262 264 265 265 264 261 258 255 252
58 58 61 67 72 75 76 75 75 75 76 76 77 79 80 81 80 79 77 75 74 73 71 70 69 68 67 65 63 62 63 65 66 66 64 62 60 60 60 60 60 59 59 61 64 66 65 64 62 64 68 69 68 66 61 54 49 41 31 21 12 1 352 343 333 324 312 302 294 287 281 276 272 268 265 264 264 265 265 265 265 264 260 256 254
57 57 58 63 68 72 74 74 74 75 75 75 76 76 77 78 80 79 78 78 77 77 76 75 73 71 70 69 68 67 66 66 65 65 64 62 59 57 56 55 54 52 50 48 48 49 52 54 53 52 52 51 52 55 56 55 54 52 47 42 36 30 25 18 8 358 348 337 326 312 299 290 282 276 272 268 266 265 266 266 266 265 262 259 257
55 56 56 60 64 67 70 72 73 73 73 73 74 74 74 74 75 76 76 77 78 78 78 78 76 75 74 73 72 71 70 69 68 66 64 63 62 60 58 57 57 56 54 50 46 44 43 45 46 45 42 38 35 37 40 42 43 43 42 41 40 38 36 32 27 22 17 9 1 348 333 320 306 292 282 275 269 266 265 267 268 267 265 263 259
57 62 61 59 59 63 67 69 70 71 73 73 72 73 73 73 74 75 75 75 75 76 76 76 75 75 74 73 71 70 69 68 67 65 64 62 61 61 60 59 58 58 57 56 54 50 47 45 45 45 43 40 35 33 33 36 40 40 39 39 38 36 34 31 25 22 21 18 14 7 0 354 346 333 314 297 285 277 270 267 265 264 266 267 262
55 62 64 61 56 54 57 60 61 64 67 69 69 70 71 73 74 75 76 76 76 75 76 76 75 73 72 69 67 65 65 64 63 62 61 60 59 57 56 56 55 54 54 55 55 54 51 49 48 47 46 44 41 38 35 34 37 40 41 40 37 33 30 25 19 14 13 11 8 5 4 3 0 355 351 344 332 316 299 284 273 264 260 259 255
52 56 59 60 57 54 54 58 61 58 56 55 56 61 67 69 70 71 73 75 76 76 77 76 75 72 69 66 63 62 61 62 61 59 58 57 57 55 53 52 51 51 49 48 49 50 50 49 47 45 43 42 42 42 40 37 35 36 37 37 35 33 29 25 22 19 16 11 3 354 352 354 358 358 357 356 353 347 339 327 304 280 268 261 255
57 57 56 58 59 59 60 64 67 63 58 56 59 63 66 66 66 69 72 73 74 75 75 74 72 69 66 63 61 59 57 57 56 55 53 52 52 52 51 49 48 47 45 41 40 41 42 43 43 42 39 37 36 37 39 39 37 36 35 34 32 30 28 26 25 24 22 19 15 4 347 336 338 344 347 348 349 345 340 334 326 311 292 279 266
59 61 62 63 64 64 63 64 65 63 61 64 68 71 71 71 72 73 71 66 63 64 64 64 64 63 61 58 56 54 51 49 48 47 45 44 42 42 42 40 39 39 38 35 33 31 30 31 32 32 32 31 29 29 33 36 37 37 38 37 33 29 26 26 28 28 24 21 24 27 24 13 359 346 338 336 339 338 329 316 306 298 290 285 278
56 60 63 65 68 69 67 65 65 64 64 65 66 68 69 70 71 71 69 64 62 61 61 61 61 59 55 51 50 49 47 46 44 42 40 38 35 33 32 29 27 25 24 23 23 23 20 18 16 16 18 19 17 16 20 25 28 31 36 39 36 30 26 25 28 31 28 24 24 30 34 32 25 17 5 351 346 353 351 339 320 300 285 276 271
51 55 59 61 64 68 69 68 67 66 66 65 65 64 64 64 64 63 63 64 65 66 66 66 65 61 55 50 47 45 44 44 43 42 39 36 33 30 28 24 21 20 18 17 16 15 13 11 9 7 6 6 5 5 7 12 15 17 22 29 31 29 27 27 29 31 32 30 26 25 25 23 21 22 21 20 24 24 13 1 351 336 313 284 265
46 49 52 55 59 63 66 67 68 67 66 66 65 64 62 61 60 60 60 60 61 63 64 65 65 64 61 56 51 46 44 43 42 39 36 33 30 29 26 23 21 20 19 17 14 12 12 11 10 9 6 3 0 357 358 1 4 4 4 8 13 15 19 24 27 29 29 29 28 28 25 19 14 14 15 18 21 21 15 9 5 1 356 343 310
Height
1432 1434 1434 1435 1435 1436 1437 1438 1441 1444 1445 1447 1449 1451 1452 1454 1459 1462 1465 1466 1468 1472 1475 1478 1481 1484 1485 1487 1489 1491 1492 1495 1497 1500 1502 1503 1506 1507 1509 1510 1511 1512 1513 1513 1513 1515 1516 1517 1518 1520 1522 1524 1525 1526 1527 1528 1528 1528 1528 1528 1528 1529 1529 1529 1529 1528 1529 1530 1529 1529 1528 1527 1527 1528 1528 1528 1527 1526 1526 1526 1526 1525 1525 1525 1524
1428 1430 1431 1431 1432 1432 1434 1435 1437 1439 1440 1442 1445 1447 1448 1450 1454 1458 1460 1462 1466 1469 1471 1474 1477 1479 1481 1483 1485 1486 1488 1490 1493 1495 1497 1499 1501 1503 1505 1506 1507 1508 1508 1509 1510 1511 1513 1514 1515 1517 1519 1520 1522 1523 1524 1525 1525 1525 1525 1526 1526 1526 1527 1527 1527 1526 1526 1527 1527 1527 1526 1526 1525 1525 1525 1525 1525 1524 1524 1523 1523 1522 1522 1522 1522
1424 1426 1427 1428 1428 1429 1431 1432 1434 1435 1436 1438 1441 1443 1445 1448 1451 1453 1456 1459 1462 1465 1467 1470 1473 1476 1477 1480 1482 1483 1483 1486 1489 1491 1493 1495 1497 1499 1500 1502 1503 1503 1504 1505 1506 1508 1509 1510 1512 1514 1515 1516 1517 1518 1519 1521 1522 1522 1523 1523 1523 1523 1524 1524 1524 1524 1524 1524 1524 1524 1524 1524 1523 1523 1523 1522 1522 1522 1522 1521 1521 1520 1519 1518 1519
1421 1422 1423 1424 1425 1426 1427 1429 1431 1432 1433 1435 1437 1439 1441 1445 1447 1449 1451 1455 1457 1460 1464 1467 1470 1472 1474 1476 1479 1479 1480 1481 1484 1487 1489 1491 1493 1495 1496 1497 1499 1500 1500 1501 1503 1505 1506 1507 1508 1510 1512 1513 1513 1514 1514 1516 1517 1519 1520 1521 1521 1520 1521 1521 1520 1521 1521 1521 1521 1521 1521 1521 1520 1520 1520 1520 1519 1520 1519 1519 1518 1518 1516 1514 1514
1419 1419 1419 1420 1422 1423 1424 1426 1427 1428 1430 1431 1433 1435 1438 1441 1443 1445 1447 1451 1454 1457 1460 1463 1466 1468 1469 1472 1474 1475 1477 1479 1480 1482 1484 1487 1489 1491 1492 1494 1495 1496 1497 1498 1499 1500 1502 1503 1504 1506 1508 1509 1510 1511 1511 1511 1512 1514 1515 1516 1517 1518 1518 1518 1517 1517 1517 1517 1517 1518 1518 1518 1518 1517 1518 1517 1517 1517 1516 1515 1515 1514 1513 1511 1510
1417 1416 1416 1416 1417 1418 1420 1422 1423 1424 1426 1428 1430 1432 1435 1437 1440 1442 1444 1445 1449 1453 1455 1458 1461 1463 1466 1468 1469 1471 1474 1476 1478 1479 1481 1482 1484 1486 1488 1490 1491 1493 1494 1494 1495 1495 1497 1498 1500 1501 1503 1504 1505 1506 1507 1508 1508 1509 1510 1511 1512 1514 1514 1514 1514 1514 1514 1513 1513 1514 1514 1515 1514 1514 1514 1514 1514 1513 1513 1512 1511 1510 1508 1508 1507
1416 1414 1413 1413 1413 1414 1415 1417 1419 1421 1422 1424 1426 1428 1431 1434 1436 1439 1442 1442 1444 1448 1450 1452 1455 1458 1461 1463 1465 1467 1470 1473 1474 1476 1478 1478 1480 1482 1484 1486 1488 1489 1490 1491 1491 1491 1491 1493 1495 1496 1498 1499 1500 1501 1502 1503 1503 1504 1505 1506 1508 1509 1509 1509 1510 1510 1510 1510 1510 1510 1510 1510 1510 1509 1510 1510 1510 1510 1509 1508 1508 1506 1504 1503 1503
1415 1412 1411 1410 1410 1411 1412 1414 1416 1418 1418 1420 1422 1425 1428 1431 1432 1435 1438 1439 1440 1443 1445 1447 1449 1453 1457 1460 1462 1464 1467 1469 1470 1472 1474 1475 1475 1477 1479 1482 1484 1485 1486 1487 1487 1487 1487 1488 1489 1491 1492 1493 1495 1496 1497 1498 1499 1499 1500 1502 1504 1505 1505 1505 1505 1505 1506 1506 1506 1506 1506 1506 1505 1505 1505 1505 1504 1505 1505 1505 1504 1504 1503 1501 1500
1413 1411 1409 1408 1408 1408 1408 1410 1413 1415 1415 1415 1417 1420 1423 1426 1428 1430 1433 1435 1437 1438 1441 1445 1447 1450 1454 1458 1459 1460 1463 1464 1464 1466 1469 1470 1471 1472 1474 1478 1480 1481 1482 1483 1483 1483 1483 1483 1484 1485 1487 1488 1490 1491 1492 1494 1494 1495 1496 1497 1498 1499 1500 1501 1501 1500 1500 1501 1501 1502 1502 1501 1501 1501 1501 1500 1499 1500 1501 1501 1500 1499 1500 1499 1498
1411 1410 1408 1408 1407 1406 1406 1408 1410 1412 1411 1410 1412 1415 1417 1420 1423 1425 1428 1431 1433 1434 1437 1441 1444 1447 1451 1455 1456 1457 1459 1459 1460 1462 1464 1465 1467 1468 1470 1472 1475 1477 1478 1479 1479 1479 1479 1479 1479 1480 1481 1483 1486 1487 1488 1489 1490 1491 1493 1493 1493 1493 1494 1495 1496 1495 1495 1495 1495 1497 1496 1496 1496 1497 1496 1496 1496 1496 1496 1496 1496 1496 1496 1496 1496
1409 1408 1407 1407 1405 1404 1404 1407 1409 1409 1408 1407 1408 1410 1411 1413 1416 1418 1422 1425 1427 1430 1433 1435 1437 1441 1446 1450 1452 1454 1454 1455 1456 1458 1460 1461 1462 1464 1465 1467 1470 1472 1474 1474 1475 1474 1474 1475 1475 1476 1477 1479 1481 1482 1484 1485 1486 1487 1489 1489 1489 1489 1489 1490 1490 1490 1490 1489 1489 1490 1490 1490 1491 1492 1492 1492 1493 1493 1492 1492 1492 1492 1492 1491 1492
1408 1407 1406 1405 1404 1403 1403 1405 1405 1406 1406 1405 1405 1406 1407 1409 1411 1414 1416 1418 1420 1423 1427 1428 1430 1434 1439 1442 1445 1447 1449 1450 1452 1454 1455 1457 1458 1460 1461 1463 1465 1467 1468 1469 1471 1471 1471 1472 1472 1472 1472 1474 1476 1478 1479 1480 1481 1482 1484 1485 1485 1485 1485 1485 1485 1485 1485 1484 1484 1483 1483 1484 1486 1487 1487 1488 1488 1489 1488 1488 1487 1487 1487 1487 1487
1406 1405 1404 1404 1404 1403 1402 1402 1402 1403 1403 1402 1402 1403 1403 1405 1407 1410 1411 1412 1414 1418 1421 1424 1426 1428 1431 1435 1437 1441 1443 1445 1448 1449 1450 1452 1454 1455 1457 1458 1460 1461 1462 1464 1466 1467 1467 1468 1468 1467 1468 1469 1471 1473 1474 1475 1476 1477 1479 1479 1480 1480 1480 1480 1479 1480 1480 1480 1478 1476 1476 1478 1479 1481 1482 1483 1484 1485 1484 1484 1484 1483 1483 1481 1481
1404 1404 1402 1402 1402 1402 1401 1400 1399 1399 1398 1399 1399 1401 1401 1402 1404 1406 1407 1407 1408 1412 1415 1418 1421 1423 1426 1429 1432 1435 1438 1440 1442 1444 1445 1447 1449 1450 1452 1453 1455 1456 1457 1458 1460 1461 1462 1462 1462 1462 1463 1464 1465 1467 1469 1471 1472 1472 1474 1474 1474 1474 1474 1474 1473 1473 1474 1474 1472 1470 1471 1472 1472 1474 1476 1477 1479 1480 1480 1481 1480 1480 1479 1477 1477
1403 1402 1400 1399 1399 1400 1400 1399 1398 1397 1396 1397 1398 1400 1401 1401 1401 1401 1401 1401 1403 1407 1410 1413 1416 1419 1422 1425 1428 1430 1433 1435 1437 1437 1438 1441 1444 1446 1447 1448 1450 1452 1453 1453 1454 1456 1458 1458 1457 1457 1458 1458 1459 1461 1464 1466 1467 1466 1467 1469 1469 1469 1469 1468 1467 1467 1467 1467 1466 1466 1467 1468 1468 1468 1470 1471 1472 1474 1475 1476 1476 1476 1475 1474 1473
1401 1400 1398 1398 1397 1397 1398 1399 1399 1399 1398 1397 1397 1398 1398 1398 1397 1395 1395 1397 1400 1403 1406 1409 1412 1415 1418 1422 1424 1425 1428 1430 1431 1432 1433 1435 1438 1441 1442 1444 1445 1446 1447 1447 1448 1450 1453 1453 1452 1452 1453 1453 1453 1455 1457 1460 1461 1461 1461 1463 1463 1463 1463 1462 1461 1461 1462 1462 1462 1462 1463 1464 1465 1465 1466 1466 1467 1468 1469 1470 1471 1471 1471 1471 1470
1399 1398 1397 1397 1396 1396 1396 1396 1397 1399 1399 1397 1396 1395 1395 1395 1394 1392 1391 1393 1396 1398 1401 1404 1408 1411 1414 1417 1419 1421 1423 1426 1426 1427 1428 1431 1433 1435 1437 1439 1440 1441 1442 1443 1443 1445 1447 1448 1448 1448 1448 1448 1449 1450 1451 1454 1455 1455 1456 1457 1457 1457 1457 1456 1456 1456 1456 1457 1457 1458 1459 1460 1461 1461 1462 1462 1463 1464 1464 1464 1465 1466 1466 1466 1466
1398 1396 1395 1395 1395 1394 1395 1395 1395 1396 1397 1396 1396 1395 1394 1393 1392 1391 1391 1392 1393 1394 1397 1400 1403 1407 1409 1412 1415 1417 1420 1421 1422 1423 1424 1426 1428 1430 1433 1434 1435 1437 1438 1438 1438 1440 1441 1442 1442 1443 1444 1443 1443 1444 1446 1448 1449 1450 1451 1451 1451 1451 1451 1451 1451 1450 1450 1452 1453 1453 1454 1455 1456 1456 1456 1457 1458 1459 1459 1459 1460 1462 1461 1461 1462
1396 1395 1394 1393 1393 1393 1393 1393 1394 1394 1394 1394 1394 1394 1394 1393 1392 1391 1391 1392 1392 1392 1394 1397 1400 1403 1406 1408 1410 1413 1415 1417 1418 1418 1420 1422 1424 1426 1429 1430 1431 1432 1433 1433 1433 1435 1437 1437 1437 1437 1438 1438 1439 1439 1441 1443 1444 1445 1445 1446 1446 1446 1446 1447 1447 1445 1445 1446 1447 1449 1450 1451 1451 1452 1452 1452 1452 1453 1453 1453 1455 1457 1456 1456 1458
1394 1393 1392 1391 1391 1391 1391 1391 1392 1392 1392 1392 1392 1392 1392 1392 1391 1391 1391 1391 1391 1391 1392 1394 1396 1399 1401 1404 1406 1408 1410 1412 1413 1414 1416 1418 1419 1421 1424 1425 1426 1427 1427 1428 1428 1430 1432 1433 1433 1432 1432 1433 1434 1435 1437 1440 1441 1442 1442 1441 1441 1441 1443 1444 1444 1442 1442 1441 1442 1444 1446 1446 1446 1447 1447 1447 1446 1446 1447 1448 1449 1450 1450 1451 1453
1393 1391 1390 1389 1389 1388 1388 1388 1388 1389 1390 1390 1389 1389 1390 1390 1390 1390 1390 1390 1390 1390 1390 1392 1393 1395 1397 1400 1402 1404 1405 1406 1408 1410 1412 1413 1415 1417 1418 1419 1420 1422 1423 1424 1425 1426 1428 1429 1428 1428 1428 1428 1430 1431 1433 1435 1437 1439 1440 1439 1438 1439 1441 1442 1441 1440 1439 1439 1439 1441 1442 1441 1440 1440 1441 1441 1440 1440 1441 1442 1443 1443 1444 1446 1447
1391 1390 1388 1387 1386 1385 1384 1384 1384 1384 1385 1386 1387 1387 1387 1388 1388 1388 1388 1388 1388 1388 1389 1390 1391 1392 1394 1396 1398 1399 1401 1402 1404 1406 1407 1409 1412 1413 1413 1414 1416 1418 1420 1420 1421 1422 1423 1423 1424 1425 1425 1425 1426 1428 1430 1432 1433 1434 1435 1436 1436 1437 1438 1438 1438 1437 1436 1435 1436 1437 1438 1437 1436 1435 1435 1434 1433 1433 1434 1435 1437 1438 1439 1440 1441
1388 1387 1385 1384 1383 1382 1381 1380 1380 1380 1381 1382 1383 1383 1384 1385 1386 1386 1386 1386 1386 1386 1387 1388 1389 1390 1391 1392 1393 1395 1397 1399 1401 1403 1404 1406 1408 1409 1409 1410 1412 1414 1416 1417 1418 1419 1420 1420 1421 1422 1422 1422 1423 1424 1426 1427 1428 1429 1431 1432 1433 1433 1434 1433 1433 1433 1432 1431 1432 1432 1433 1433 1433 1433 1432 1430 1427 1426 1426 1429 1432 1433 1434 1435 1436
1385 1383 1382 1380 1379 1377 1376 1376 1376 1376 1376 1377 1378 1379 1380 1381 1382 1383 1384 1384 1384 1384 1385 1386 1387 1387 1389 1390 1391 1392 1394 1396 1397 1399 1401 1403 1405 1405 1405 1406 1408 1410 1412 1413 1414 1416 1418 1419 1419 1419 1419 1419 1419 1420 1422 1423 1424 1425 1426 1427 1428 1428 1429 1428 1427 1426 1426 1426 1427 1427 1427 1428 1429 1430 1430 1427 1424 1423 1424 1426 1428 1429 1429 1430 1431
1384 1381 1378 1376 1374 1372 1370 1370 1370 1371 1371 1372 1373 1374 1376 1377 1379 1380 1381 1382 1382 1383 1384 1385 1385 1386 1387 1388 1389 1390 1391 1393 1394 1396 1397 1399 1400 1400 1400 1402 1404 1406 1407 1408 1410 1411 1413 1414 1415 1415 1414 1415 1415 1416 1417 1418 1419 1420 1421 1422 1423 1423 1423 1422 1421 1420 1419 1419 1420 1420 1421 1422 1423 1425 1426 1423 1420 1420 1422 1421 1422 1424 1424 1425 1425
1383 1380 1377 1373 1370 1367 1365 1363 1363 1364 1366 1367 1368 1369 1372 1374 1375 1376 1378 1379 1380 1381 1383 1384 1384 1384 1385 1386 1387 1388 1388 1389 1390 1392 1393 1394 1395 1395 1396 1398 1399 1401 1403 1403 1405 1406 1407 1408 1410 1410 1411 1411 1412 1412 1413 1413 1414 1415 1416 1417 1417 1417 1416 1416 1414 1413 1412 1413 1414 1414 1415 1416 1418 1420 1421 1418 1414 1416 1417 1416 1416 1418 1419 1418 1419
1383 1380 1376 1371 1367 1363 1360 1358 1357 1357 1359 1361 1363 1365 1367 1370 1372 1373 1375 1376 1377 1379 1381 1383 1383 1383 1383 1384 1385 1385 1385 1385 1387 1388 1389 1390 1390 1391 1393 1394 1396 1397 1399 1400 1401 1402 1403 1404 1405 1406 1407 1407 1407 1408 1408 1408 1409 1409 1410 1411 1411 1411 1410 1410 1409 1408 1407 1407 1408 1408 1409 1411 1413 1415 1415 1411 1409 1410 1412 1412 1411 1412 1413 1413 1413
1383 1379 1375 1369 1364 1360 1356 1353 1351 1350 1352 1355 1359 1361 1363 1366 1368 1370 1371 1373 1374 1376 1379 1380 1380 1381 1381 1381 1382 1382 1383 1383 1384 1385 1387 1388 1389 1389 1390 1391 1393 1394 1395 1397 1398 1399 1399 1400 1400 1400 1401 1402 1402 1402 1402 1402 1402 1403 1404 1405 1405 1405 1405 1404 1403 1402 1402 1402 1403 1403 1404 1406 1407 1408 1408 1406 1405 1406 1407 1406 1406 1407 1408 1408 1407
1383 1378 1373 1367 1362 1356 1351 1347 1344 1344 1346 1350 1354 1355 1357 1360 1363 1365 1366 1368 1371 1373 1375 1376 1376 1377 1377 1378 1379 1380 1381 1381 1382 1383 1384 1386 1387 1387 1387 1388 1389 1391 1392 1393 1394 1395 1395 1395 1395 1396 1396 1397 1397 1397 1397 1397 1397 1397 1397 1398 1398 1398 1398 1398 1397 1397 1397 1398 1398 1398 1400 1401 1401 1402 1402 1401 1400 1401 1401 1401 1401 1402 1403 1402 1401
1382 1377 1372 1366 1359 1352 1344 1338 1335 1336 1341 1346 1348 1349 1352 1356 1359 1360 1362 1364 1367 1369 1371 1373 1373 1375 1375 1375 1376 1378 1378 1379 1380 1381 1381 1383 1384 1385 1385 1385 1386 1387 1388 1389 1390 1391 1391 1391 1392 1392 1393 1393 1393 1393 1393 1393 1392 1392 1392 1392 1392 1392 1392 1392 1392 1392 1393 1393 1393 1393 1395 1395 1395 1395 1395 1395 1395 1395 1396 1395 1395 1396 1396 1395 1394
1382 1377 1372 1366 1359 1351 1342 1335 1331 1333 1338 1342 1343 1345 1349 1353 1356 1358 1360 1362 1364 1366 1368 1369 1370 1372 1373 1373 1374 1375 1376 1376 1378 1378 1379 1380 1381 1382 1382 1383 1383 1384 1385 1386 1386 1387 1387 1388 1388 1389 1390 1391 1390 1389 1389 1389 1388 1388 1387 1386 1386 1385 1386 1386 1386 1387 1387 1388 1388 1389 1390 1390 1389 1389 1389 1390 1390 1390 1390 1390 1389 1389 1389 1388 1387
1383 1378 1372 1366 1360 1352 1345 1339 1337 1337 1340 1342 1342 1344 1348 1352 1354 1357 1358 1360 1362 1363 1365 1366 1367 1368 1370 1371 1371 1372 1373 1373 1374 1375 1375 1376 1377 1378 1378 1379 1380 1381 1382 1382 1382 1382 1383 1384 1385 1386 1387 1387 1387 1387 1386 1385 1385 1385 1384 1383 1382 1381 1381 1381 1382 1382 1382 1382 1383 1384 1385 1385 1385 1385 1385 1385 1385 1384 1384 1384 1384 1383 1383 1383 1383
1385 1380 1374 1368 1363 1356 1348 1343 1341 1341 1342 1343 1343 1344 1348 1352 1355 1357 1358 1359 1361 1362 1363 1364 1365 1366 1367 1368 1369 1369 1370 1370 1371 1371 1372 1373 1373 1374 1375 1375 1376 1377 1378 1379 1379 1379 1380 1381 1381 1382 1383 1384 1384 1383 1382 1381 1381 1381 1380 1380 1379 1378 1377 1377 1377 1376 1376 1377 1377 1378 1379 1380 1381 1381 1380 1380 1380 1379 1378 1378 1378 1378 1378 1378 1378
1388 1383 1378 1372 1366 1361 1355 1350 1347 1345 1346 1346 1345 1347 1350 1353 1356 1358 1359 1360 1361 1362 1363 1364 1365 1366 1366 1367 1367 1368 1368 1368 1369 1369 1369 1370 1371 1371 1371 1372 1372 1373 1374 1375 1376 1376 1376 1376 1377 1377 1378 1378 1378 1378 1377 1376 1376 1375 1375 1375 1374 1374 1373 1373 1373 1372 1371 1372 1372 1373 1374 1374 1375 1375 1374 1374 1374 1373 1373 1373 1373 1373 1373 1373 1373
1391 1387 1382 1377 1371 1366 1362 1358 1355 1352 1351 1350 1350 1351 1353 1355 1357 1359 1360 1361 1362 1363 1364 1364 1365 1365 1366 1366 1366 1366 1366 1366 1366 1366 1367 1367 1367 1367 1368 1368 1369 1370 1370 1371 1372 1371 1371 1372 1372 1372 1372 1372 1372 1372 1372 1372 1371 1370 1370 1370 1369 1369 1369 1369 1369 1368 1368 1367 1367 1367 1368 1369 1369 1369 1369 1368 1368 1367 1367 1367 1367 1367 1367 1367 1368
1394 1390 1386 1382 1377 1373 1369 1366 1363 1360 1358 1357 1357 1357 1357 1358 1359 1360 1361 1362 1362 1363 1364 1364 1365 1365 1365 1365 1365 1365 1364 1364 1364 1364 1364 1364 1364 1365 1365 1366 1366 1367 1367 1368 1368 1368 1368 1367 1367 1368 1367 1367 1367 1367 1367 1367 1366 1366 1365 1365 1365 1365 1365 1365 1364 1364 1363 1363 1362 1362 1363 1363 1364 1364 1363 1362 1362 1362 1361 1361 1362 1362 1362 1362 1362
1397 1394 1390 1387 1383 1380 1377 1373 1370 1369 1368 1367 1366 1365 1364 1364 1364 1363 1363 1364 1364 1364 1366 1366 1366 1366 1365 1365 1365 1365 1364 1364 1363 1363 1363 1363 1363 1363 1363 1364 1364 1365 1365 1365 1365 1365 1365 1365 1365 1365 1365 1364 1364 1364 1363 1363 1362 1362 1361 1361 1361 1361 1360 1360 1360 1359 1359 1358 1357 1357 1357 1357 1358 1358 1357 1357 1356 1356 1356 1356 1356 1356 1356 1357 1357
1401 1398 1395 1392 1389 1386 1383 1381 1378 1376 1375 1375 1373 1372 1371 1370 1369 1369 1369 1368 1367 1368 1369 1368 1367 1367 1367 1367 1367 1367 1366 1366 1364 1363 1362 1363 1363 1363 1363 1364 1364 1364 1364 1364 1364 1364 1364 1364 1363 1363 1363 1363 1362 1362 1361 1360 1359 1358 1358 1358 1357 1356 1356 1356 1356 1355 1354 1353 1353 1352 1352 1352 1352 1352 1352 1351 1351 1351 1351 1351 1351 1352 1352 1352 1353
1405 1402 1400 1397 1395 1391 1389 1387 1385 1383 1381 1380 1379 1378 1377 1375 1374 1375 1376 1374 1371 1371 1371 1370 1369 1370 1372 1372 1371 1370 1370 1368 1366 1365 1365 1365 1365 1365 1366 1366 1366 1366 1366 1366 1366 1365 1365 1364 1363 1363 1362 1362 1361 1360 1359 1358 1357 1356 1355 1355 1354 1354 1353 1353 1352 1352 1351 1350 1349 1348 1348 1347 1347 1347 1347 1346 1346 1347 1347 1347 1347 1347 1348 1348 1349
1409 1406 1404 1401 1399 1396 1394 1392 1390 1388 1387 1385 1384 1383 1383 1382 1381 1381 1381 1377 1374 1374 1375 1374 1373 1375 1376 1375 1375 1375 1374 1371 1369 1370 1370 1370 1370 1369 1369 1369 1369 1369 1369 1368 1368 1367 1367 1366 1364 1363 1362 1361 1361 1360 1358 1357 1356 1355 1354 1353 1353 1352 1351 1350 1350 1350 1349 1348 1347 1346 1344 1344 1343 1343 1342 1342 1342 1342 1343 1343 1343 1344 1344 1345 1346
1412 1410 1408 1405 1403 1400 1398 1397 1395 1393 1392 1391 1390 1388 1388 1387 1386 1385 1383 1379 1378 1378 1380 1379 1379 1380 1380 1379 1380 1381 1379 1375 1373 1374 1374 1374 1374 1374 1373 1372 1373 1373 1372 1371 1370 1369 1368 1368 1366 1365 1363 1362 1361 1360 1359 1357 1356 1355 1354 1353 1352 1351 1350 1350 1349 1349 1348 1347 1345 1344 1343 1342 1341 1340 1340 1339 1339 1339 1339 1340 1340 1341 1342 1343 1344
1415 1413 1411 1409 1406 1404 1402 1400 1399 1398 1396 1395 1394 1393 1392 1391 1389 1387 1385 1383 1382 1383 1383 1383 1384 1384 1384 1384 1385 1384 1381 1379 1379 1379 1378 1378 1378 1378 1377 1377 1377 1376 1376 1374 1373 1371 1370 1369 1367 1366 1364 1364 1362 1361 1359 1357 1356 1355 1354 1353 1352 1351 1350 1349 1348 1348 1347 1346 1345 1344 1343 1342 1341 1339 1338 1337 1337 1337 1337 1338 1338 1339 1339 1340 1342
1417 1415 1414 1412 1410 1408 1406 1404 1403 1402 1401 1399 1398 1397 1396 1395 1393 1391 1390 1388 1388 1387 1387 1387 1388 1388 1388 1388 1388 1386 1384 1383 1383 1382 1382 1382 1381 1381 1381 1381 1381 1380 1378 1377 1375 1374 1373 1371 1368 1366 1366 1365 1365 1363 1360 1358 1356 1355 1354 1353 1353 1352 1351 1349 1349 1348 1347 1346 1345 1344 1343 1342 1340 1339 1338 1337 1336 1336 1336 1336 1336 1337 1338 1338 1340
1419 1418 1416 1415 1413 1411 1410 1408 1407 1406 1404 1403 1402 1401 1399 1398 1396 1395 1394 1393 1392 1392 1392 1392 1392 1393 1392 1392 1391 1389 1388 1387 1386 1385 1385 1385 1385 1385 1385 1384 1383 1382 1381 1379 1378 1376 1374 1373 1370 1368 1367 1367 1366 1365 1363 1360 1358 1357 1356 1355 1354 1352 1351 1350 1349 1348 1347 1346 1345 1344 1343 1342 1341 1339 1338 1337 1336 1335 1335 1335 1335 1336 1336 1337 1339
1422 1420 1418 1417 1415 1414 1413 1412 1411 1409 1408 1407 1405 1403 1402 1401 1400 1399 1398 1397 1396 1396 1396 1396 1396 1396 1395 1395 1393 1392 1391 1390 1389 1389 1389 1388 1388 1388 1388 1387 1386 1385 1383 1382 1379 1377 1376 1374 1373 1371 1370 1369 1368 1366 1364 1362 1360 1358 1357 1356 1354 1353 1352 1351 1350 1349 1347 1346 1345 1344 1344 1343 1342 1341 1339 1338 1337 1336 1335 1335 1335 1335 1336 1337 1338
1423 1422 1420 1419 1417 1416 1415 1414 1413 1412 1410 1410 1409 1407 1405 1404 1403 1402 1401 1400 1400 1400 1399 1399 1399 1398 1397 1396 1395 1394 1394 1393 1392 1392 1392 1392 1391 1390 1389 1388 1387 1386 1385 1384 1381 1379 1378 1376 1375 1374 1373 1371 1369 1367 1366 1364 1362 1360 1358 1356 1355 1354 1353 1352 1350 1349 1348 1347 1346 1345 1345 1344 1343 1342 1340 1339 1338 1337 1336 1336 1336 1336 1336 1337 1338
1424 1423 1422 1420 1419 1418 1417 1415 1414 1413 1412 1411 1411 1410 1408 1407 1406 1405 1404 1403 1403 1402 1401 1401 1400 1399 1399 1398 1397 1396 1396 1395 1395 1394 1394 1393 1392 1391 1390 1389 1389 1388 1386 1385 1383 1381 1380 1379 1377 1376 1375 1373 1371 1370 1367 1365 1363 1362 1360 1358 1356 1355 1354 1353 1352 1351 1349 1348 1347 1346 1345 1344 1343 1342 1341 1340 1339 1338 1338 1337 1337 1337 1337 1337 1338
1425 1424 1423 1422 1421 1420 1418 1417 1416 1415 1414 1413 1412 1411 1410 1409 1409 1408 1407 1406 1405 1405 1404 1403 1402 1401 1400 1400 1399 1398 1398 1397 1396 1396 1395 1394 1393 1392 1391 1391 1390 1389 1388 1386 1385 1383 1382 1381 1379 1378 1376 1375 1373 1372 1369 1367 1366 1364 1362 1360 1358 1357 1356 1355 1353 1352 1350 1349 1347 1346 1345 1344 1343 1343 1341 1341 1340 1339 1339 1338 1338 1338 1338 1337 1338
1426 1425 1424 1423 1422 1421 1420 1419 1417 1416 1415 1414 1413 1413 1412 1411 1410 1409 1408 1408 1407 1407 1406 1405 1404 1403 1402 1402 1401 1400 1400 1399 1398 1397 1396 1395 1394 1393 1393 1392 1391 1390 1389 1387 1386 1384 1383 1382 1381 1379 1377 1375 1374 1373 1371 1369 1368 1366 1363 1361 1360 1359 1358 1356 1354 1352 1351 1350 1348 1347 1346 1345 1344 1343 1342 1341 1340 1340 1339 1339 1338 1338 1338 1337 1338
1427 1426 1425 1424 1423 1422 1421 1420 1419 1418 1417 1416 1415 1414 1413 1412 1411 1410 1410 1409 1408 1408 1407 1406 1406 1405 1404 1403 1403 1402 1401 1400 1399 1398 1397 1397 1396 1395 1394 1393 1392 1390 1389 1388 1386 1385 1384 1382 1381 1379 1378 1376 1375 1374 1372 1370 1369 1367 1364 1362 1361 1360 1359 1357 1355 1353 1352 1350 1349 1348 1347 1346 1345 1344 1343 1342 1341 1340 1340 1339 1339 1338 1338 1337 1337
1427 1427 1426 1424 1423 1423 1422 1421 1420 1419 1418 1417 1416 1415 1414 1413 1412 1411 1411 1410 1409 1409 1408 1407 1407 1406 1406 1405 1404 1403 1402 1401 1400 1400 1399 1398 1397 1396 1395 1394 1392 1391 1390 1388 1387 1385 1384 1383 1381 1380 1378 1377 1376 1374 1373 1371 1369 1367 1365 1363 1362 1361 1360 1358 1356 1354 1352 1351 1349 1348 1347 1347 1346 1345 1344 1343 1342 1341 1341 1340 1339 1338 1338 1337 1337